1503993600.68,13585,19.13,74304.0,20.01,-27.71,-29.45,0,*4D
1503993601.92,13586,19.13,74304.3,19.99,-27.35,-28.79,0,*4B
1503993603.13,13587,19.13,74300.8,19.99,-24.97,-26.45,0,*40
1503993604.4,13588,19.13,74304.3,20.01,-27.39,-28.91,0,*44
1503993605.67,13589,19.13,74304.8,20.01,-26.77,-28.15,0,*42
1503993606.93,13590,19.13,74300.5,19.99,-26.81,-27.99,0,*43
1503993608.19,13591,19.13,74300.8,19.99,-26.13,-27.61,0,*4E
1503993609.42,13592,19.13,74304.8,20.01,-25.91,-27.29,0,*43
1503993610.7,13593,19.13,74304.3,20.01,-25.97,-27.39,0,*45
1503993611.98,13594,19.13,74304.3,20.01,-27.39,-28.91,0,*49
1503993613.21,13595,19.13,74300.0,20.01,-25.91,-27.29,0,*44
1503993614.44,13596,19.13,74304.8,20.01,-25.23,-26.61,0,*43
1503993615.7,13597,19.13,74302.0,20.01,-26.77,-28.31,0,*4B
1503993616.96,13598,19.13,74304.0,19.99,-29.73,-31.39,0,*44
1503993618.18,13599,19.13,74300.8,19.99,-27.51,-29.01,0,*49
1503993619.39,13600,19.13,74304.0,19.95,-26.49,-27.89,0,*40
1503993620.63,13601,19.13,74304.8,19.99,-25.81,-27.29,0,*40
1503993621.89,13602,19.13,74304.3,19.99,-25.97,-27.35,0,*49
1503993623.14,13603,19.13,74304.8,19.99,-26.13,-27.61,0,*46
1503993624.38,13604,19.13,74304.5,19.99,-26.17,-27.67,0,*43
1503993625.61,13605,19.13,74304.0,19.99,-26.23,-27.61,0,*43
1503993626.89,13606,19.13,74300.3,20.01,-25.71,-27.23,0,*49
1503993628.11,13607,19.13,74304.8,20.01,-26.23,-27.55,0,*4D
1503993629.39,13608,19.13,74304.8,20.01,-25.29,-26.71,0,*4C
1503993630.63,13609,19.13,74306.5,20.03,-24.71,-26.07,0,*42
1503993631.89,13610,19.13,74304.8,20.05,-24.51,-25.81,0,*43
1503993633.15,13611,19.13,74304.8,20.05,-25.03,-26.39,0,*44
1503993634.42,13612,19.13,74302.5,20.07,-24.71,-26.29,0,*40
1503993635.63,13613,19.13,74306.5,20.07,-24.61,-26.03,0,*48
1503993636.88,13614,19.13,74306.5,20.09,-25.61,-26.97,0,*4D
1503993638.13,13615,19.13,74308.0,20.09,-26.29,-27.77,0,*4C
1503993639.35,13616,19.13,74306.8,20.09,-26.45,-27.93,0,*4F
1503993640.57,13617,19.13,74304.5,20.09,-26.23,-27.55,0,*44
1503993641.8,13618,19.13,74306.5,20.09,-25.09,-26.39,0,*4B
1503993643.08,13619,19.13,74300.8,20.09,-25.97,-27.39,0,*4C
1503993644.28,13620,19.13,74306.8,20.11,-24.97,-26.39,0,*4F
1503993645.57,13621,19.13,74304.8,20.13,-25.71,-26.93,0,*45
1503993646.82,13622,19.13,74304.0,20.13,-26.65,-28.09,0,*4D
1503993648.11,13623,19.13,74304.5,20.13,-25.75,-27.19,0,*40
1503993649.39,13624,19.13,74302.3,20.13,-25.55,-26.93,0,*46
1503993650.64,13625,19.13,74302.3,20.13,-25.75,-27.07,0,*49
1503993651.91,13626,19.13,74302.3,20.13,-24.35,-25.71,0,*4C
1503993653.15,13627,19.13,74306.0,20.15,-24.15,-25.49,0,*42
1503993654.41,13628,19.13,74304.5,20.17,-24.21,-25.65,0,*46
1503993655.64,13629,19.13,74304.0,20.21,-24.77,-26.07,0,*46
1503993656.89,13630,19.13,74300.8,20.21,-24.67,-26.23,0,*49
1503993658.12,13631,19.13,74304.5,20.23,-25.75,-27.51,0,*4C
1503993659.36,13632,19.13,74306.5,20.23,-27.23,-28.75,0,*47
1503993660.62,13633,19.13,74300.3,20.21,-27.77,-29.35,0,*40
1503993661.89,13634,19.13,74304.3,20.21,-26.29,-27.83,0,*4E
1503993663.18,13635,19.13,74304.0,20.21,-26.81,-28.25,0,*4E
1503993664.43,13636,19.13,74302.5,20.21,-26.45,-27.83,0,*46
1503993665.63,13637,19.13,74300.8,20.23,-24.77,-26.07,0,*4B
1503993666.86,13638,19.13,74306.8,20.23,-25.49,-26.93,0,*45
1503993668.06,13639,19.13,74302.5,20.23,-25.91,-27.51,0,*4E
1503993669.3,13640,19.13,74304.0,20.23,-24.71,-26.07,0,*4D
1503993670.53,13641,19.13,74304.8,20.23,-25.87,-27.19,0,*4A
1503993671.75,13642,19.13,74304.8,20.23,-25.19,-26.55,0,*47
1503993672.97,13643,19.13,74304.5,20.23,-25.23,-26.71,0,*49
1503993674.2,13644,19.13,74302.3,20.23,-25.03,-26.39,0,*40
1503993675.45,13645,19.13,74300.0,20.27,-25.29,-26.71,0,*41
1503993676.69,13646,19.13,74300.0,20.27,-25.45,-26.81,0,*47
1503993677.89,13647,19.13,74302.8,20.27,-25.19,-26.65,0,*45
1503993679.1,13648,19.13,74304.3,20.29,-25.65,-27.07,0,*4A
1503993680.3,13649,19.13,74306.8,20.29,-25.23,-26.61,0,*48
1503993681.5,13650,19.13,74302.3,20.29,-24.93,-26.39,0,*47
1503993682.73,13651,19.13,74300.0,20.29,-26.07,-27.61,0,*45
1503993683.96,13652,19.13,74302.3,20.29,-27.07,-28.63,0,*4A
1503993685.19,13653,19.13,74302.0,20.29,-25.91,-27.23,0,*4D
1503993686.44,13654,19.13,74304.8,20.29,-26.29,-27.83,0,*40
1503993687.68,13655,19.13,74302.0,20.29,-25.65,-26.97,0,*4E
1503993688.93,13656,19.13,74300.3,20.31,-25.23,-26.77,0,*48
1503993690.19,13657,19.13,74300.0,20.31,-26.33,-27.77,0,*4A
1503993691.43,13658,19.13,74300.5,20.29,-26.45,-27.99,0,*4D
1503993692.66,13659,19.13,74304.8,20.31,-26.39,-27.89,0,*4F
1503993693.9,13660,19.13,74302.5,20.29,-26.65,-27.99,0,*44
1503993695.14,13661,19.13,74304.5,20.29,-26.77,-28.31,0,*4B
1503993696.37,13662,19.13,74298.3,20.29,-26.65,-28.09,0,*40
1503993697.61,13663,19.13,74300.0,20.31,-25.87,-27.07,0,*46
1503993698.85,13664,19.13,74302.3,20.31,-24.61,-26.07,0,*49
1503993700.08,13665,19.13,74300.8,20.33,-26.03,-27.45,0,*4B
1503993701.34,13666,19.13,74304.3,20.33,-25.55,-26.71,0,*4E
1503993702.58,13667,19.13,74300.5,20.33,-24.77,-26.33,0,*48
1503993703.78,13668,19.13,74302.5,20.33,-27.77,-29.23,0,*4A
1503993705.03,13669,19.13,74304.8,20.33,-27.35,-28.91,0,*45
1503993706.26,13670,19.13,74298.3,20.33,-27.39,-28.97,0,*47
1503993707.48,13671,19.13,74304.8,20.29,-25.81,-27.13,0,*4F
1503993708.72,13672,19.13,74302.8,20.31,-26.39,-27.93,0,*4D
1503993709.96,13673,19.13,74302.0,20.29,-27.19,-28.91,0,*4B
1503993711.22,13674,19.13,74304.0,20.29,-27.99,-29.51,0,*49
1503993712.43,13675,19.13,74300.8,20.29,-27.29,-28.97,0,*48
1503993713.68,13676,19.13,74302.8,20.27,-25.97,-27.19,0,*4B
1503993714.93,13677,19.13,74302.5,20.27,-25.29,-26.71,0,*40
1503993716.15,13678,19.13,74302.3,20.27,-25.45,-26.87,0,*4C
1503993717.38,13679,19.13,74306.0,20.29,-25.75,-27.29,0,*45
1503993718.64,13680,19.13,74302.0,20.29,-26.81,-28.25,0,*48
1503993719.87,13681,19.13,74302.0,20.29,-26.07,-27.45,0,*4E
1503993721.08,13682,19.13,74300.5,20.29,-26.65,-28.15,0,*43
1503993722.32,13683,19.13,74304.3,20.29,-27.77,-29.35,0,*43
1503993723.54,13684,19.13,74304.0,20.29,-26.13,-27.51,0,*4B
1503993724.75,13685,19.13,74306.3,20.29,-26.45,-27.77,0,*4D
1503993726.0,13686,19.19,74306.3,20.29,-26.93,-28.47,0,*49
1503993727.24,13687,19.13,74302.5,20.29,-26.49,-27.99,0,*43
1503993728.49,13688,19.13,74306.3,20.29,-26.29,-27.61,0,*4D
1503993729.72,13689,19.13,74302.0,20.29,-27.13,-28.63,0,*49
1503993730.98,13690,19.13,74302.5,20.29,-26.29,-27.61,0,*44
1503993732.18,13691,19.13,74302.3,20.27,-26.45,-27.71,0,*40
1503993733.4,13692,19.13,74300.0,20.27,-25.45,-26.87,0,*48
1503993734.61,13693,19.13,74300.5,20.29,-25.13,-26.61,0,*4C
1503993735.86,13694,19.13,74300.8,20.31,-25.39,-26.77,0,*4D
1503993737.06,13695,19.13,74304.3,20.29,-25.09,-26.49,0,*4B
1503993738.32,13696,19.13,74302.0,20.31,-25.75,-27.07,0,*41
1503993739.56,13697,19.19,74306.0,20.33,-25.55,-26.87,0,*49
1503993740.79,13698,19.13,74304.0,20.33,-26.93,-28.53,0,*48
1503993742.03,13699,19.13,74302.5,20.35,-26.87,-28.31,0,*4E
1503993743.26,13700,19.13,74300.0,20.33,-28.25,-29.67,0,*4D
1503993744.49,13701,19.13,74300.5,20.29,-26.61,-28.09,0,*40
1503993745.78,13702,19.13,74302.8,20.31,-26.77,-28.25,0,*43
1503993747.05,13703,19.19,74304.5,20.31,-26.03,-27.39,0,*43
1503993748.28,13704,19.19,74306.3,20.31,-26.07,-27.55,0,*4A
1503993749.57,13705,19.13,74306.8,20.31,-25.75,-27.35,0,*4B
1503993750.83,13706,19.13,74304.0,20.31,-25.09,-26.77,0,*44
1503993752.11,13707,19.19,74304.5,20.31,-24.87,-26.17,0,*44
1503993753.38,13708,19.13,74306.0,20.33,-24.25,-25.71,0,*42
1503993754.65,13709,19.19,74304.3,20.35,-26.33,-27.89,0,*45
1503993755.91,13710,19.13,74300.5,20.35,-26.03,-27.35,0,*49
1503993757.15,13711,19.13,74304.0,20.33,-26.03,-27.45,0,*49
1503993758.37,13712,19.13,74302.3,20.35,-25.19,-26.65,0,*47
1503993759.65,13713,19.19,74304.5,20.35,-25.81,-27.35,0,*43
1503993760.91,13714,19.19,74308.5,20.35,-26.39,-27.83,0,*49
1503993762.19,13715,19.13,74302.8,20.35,-25.97,-27.35,0,*42
1503993763.46,13716,19.13,74302.3,20.35,-24.25,-25.49,0,*40
1503993764.7,13717,19.13,74304.3,20.39,-25.65,-27.07,0,*40
1503993765.93,13718,19.13,74306.0,20.39,-25.49,-27.07,0,*41
1503993767.13,13719,19.13,74304.5,20.37,-26.45,-27.93,0,*4C
1503993768.39,13720,19.13,74304.0,20.39,-25.75,-27.29,0,*49
1503993769.64,13721,19.13,74300.5,20.39,-25.23,-26.77,0,*41
1503993770.89,13722,19.19,74304.0,20.39,-25.35,-26.93,0,*4F
1503993772.12,13723,19.13,74306.0,20.39,-26.49,-27.93,0,*47
1503993773.35,13724,19.13,74306.0,20.39,-25.65,-27.13,0,*45
1503993774.6,13725,19.13,74300.8,20.43,-25.29,-26.45,0,*43
1503993775.86,13726,19.13,74304.0,20.39,-26.07,-27.61,0,*45
1503993777.11,13727,19.13,74302.3,20.39,-27.67,-29.17,0,*4C
1503993778.4,13728,19.19,74306.3,20.39,-26.97,-28.47,0,*49
1503993779.68,13729,19.13,74300.5,20.43,-26.17,-27.61,0,*46
1503993780.93,13730,19.13,74300.8,20.43,-25.39,-26.71,0,*41
1503993782.16,13731,19.13,74300.0,20.39,-24.77,-26.23,0,*41
1503993783.42,13732,19.19,74306.3,20.43,-27.29,-28.91,0,*40
1503993784.64,13733,19.13,74306.3,20.43,-26.87,-28.37,0,*48
1503993785.9,13734,19.13,74304.5,20.39,-25.81,-27.29,0,*47
1503993787.13,13735,19.13,74304.3,20.43,-24.61,-25.91,0,*45
1503993788.41,13736,19.13,74302.0,20.43,-24.41,-25.75,0,*4E
1503993789.66,13737,19.13,74302.0,20.45,-27.35,-29.01,0,*46
1503993790.88,13738,19.13,74302.0,20.43,-27.71,-29.23,0,*4F
1503993792.16,13739,19.19,74310.0,20.43,-26.29,-27.61,0,*4A
1503993793.38,13740,19.19,74304.3,20.43,-26.39,-27.93,0,*48
1503993794.61,13741,19.19,74306.5,20.43,-26.39,-27.77,0,*43
1503993795.83,13742,19.19,74304.3,20.43,-26.23,-27.71,0,*4D
1503993797.05,13743,19.13,74302.0,20.43,-26.23,-27.55,0,*4A
1503993798.28,13744,19.19,74304.0,20.43,-25.61,-27.03,0,*4B
1503993799.53,13745,19.13,74304.0,20.43,-26.29,-27.77,0,*46
1503993800.78,13746,19.19,74306.0,20.43,-27.07,-28.75,0,*45
1503993802.02,13747,19.19,74304.8,20.45,-27.19,-28.75,0,*4D
1503993803.3,13748,19.13,74302.0,20.43,-26.77,-28.25,0,*48
1503993804.58,13749,19.13,74302.5,20.43,-27.39,-28.91,0,*4D
1503993805.81,13750,19.19,74302.5,20.39,-26.61,-27.93,0,*49
1503993807.07,13751,19.19,74302.3,20.39,-26.49,-27.99,0,*48
1503993808.3,13752,19.19,74302.8,20.39,-26.23,-27.67,0,*46
1503993809.58,13753,19.13,74302.0,20.39,-27.61,-29.01,0,*4E
1503993810.85,13754,19.13,74300.8,20.39,-26.81,-28.31,0,*44
1503993812.12,13755,19.19,74302.3,20.39,-27.23,-28.79,0,*40
1503993813.38,13756,19.19,74302.5,20.37,-27.45,-29.01,0,*43
1503993814.63,13757,19.19,74304.0,20.37,-28.09,-29.73,0,*40
1503993815.89,13758,19.19,74304.8,20.37,-27.61,-29.35,0,*4C
1503993817.15,13759,19.13,74302.5,20.35,-27.35,-28.85,0,*44
1503993818.4,13760,19.19,74302.8,20.35,-26.13,-27.55,0,*49
1503993819.66,13761,19.19,74302.8,20.35,-25.49,-26.81,0,*4C
1503993820.91,13762,19.19,74302.8,20.39,-26.07,-27.45,0,*43
1503993822.11,13763,19.13,74302.3,20.37,-25.65,-27.13,0,*48
1503993823.4,13764,19.19,74306.3,20.39,-25.97,-27.35,0,*48
1503993824.61,13765,19.19,74306.5,20.37,-26.65,-28.31,0,*42
1503993825.89,13766,19.19,74304.5,20.39,-25.97,-27.45,0,*4D
1503993827.15,13767,19.13,74300.0,20.39,-26.49,-27.99,0,*4D
1503993828.43,13768,19.19,74306.0,20.39,-25.45,-27.23,0,*4C
1503993829.63,13769,19.19,74306.5,20.37,-27.67,-29.45,0,*4F
1503993830.86,13770,19.19,74304.3,20.37,-27.83,-29.45,0,*4D
1503993832.09,13771,19.13,74302.8,20.37,-25.75,-27.13,0,*4A
1503993833.35,13772,19.13,74304.0,20.39,-24.77,-26.29,0,*4C
1503993834.63,13773,19.13,74302.0,20.43,-26.29,-27.61,0,*44
1503993835.86,13774,19.19,74306.0,20.45,-26.33,-27.71,0,*4F
1503993837.12,13775,19.19,74304.3,20.45,-24.71,-26.13,0,*4F
1503993838.39,13776,19.19,74304.8,20.43,-24.25,-25.61,0,*4D
1503993839.67,13777,19.19,74304.0,20.47,-27.23,-28.91,0,*4F
1503993840.95,13778,19.19,74300.8,20.43,-26.93,-28.59,0,*4A
1503993842.18,13779,19.19,74304.5,20.45,-26.17,-27.55,0,*42
1503993843.43,13780,19.19,74306.0,20.45,-24.41,-25.81,0,*4E
1503993844.71,13781,19.13,74300.3,20.47,-25.03,-26.55,0,*40
1503993845.97,13782,19.19,74304.8,20.47,-26.39,-27.99,0,*48
1503993847.23,13783,19.19,74306.3,20.47,-26.03,-27.39,0,*4A
1503993848.47,13784,19.19,74304.0,20.47,-26.03,-27.51,0,*43
1503993849.72,13785,19.19,74304.3,20.49,-26.17,-27.61,0,*4A
1503993850.95,13786,19.19,74304.0,20.49,-26.97,-28.37,0,*4D
1503993852.21,13787,19.19,74306.8,20.47,-26.17,-27.67,0,*40
1503993853.44,13788,19.19,74304.8,20.49,-25.39,-26.97,0,*40
1503993854.64,13789,19.19,74306.3,20.49,-25.13,-26.49,0,*4A
1503993855.84,13790,19.19,74304.8,20.49,-24.61,-26.07,0,*4C
1503993857.1,13791,19.19,74306.5,20.51,-24.47,-25.75,0,*46
1503993858.32,13792,19.19,74304.3,20.53,-25.23,-26.77,0,*45
1503993859.57,13793,19.19,74304.5,20.51,-24.93,-26.29,0,*47
1503993860.79,13794,19.19,74304.8,20.55,-25.19,-26.65,0,*4F
1503993862.04,13795,19.19,74306.5,20.55,-25.35,-26.81,0,*4A
1503993863.23,13796,19.19,74302.3,20.57,-25.23,-26.65,0,*46
1503993864.43,13797,19.19,74304.3,20.57,-25.19,-26.65,0,*4E
1503993865.65,13798,19.19,74308.0,20.57,-25.49,-26.93,0,*4D
1503993866.85,13799,19.19,74302.5,20.57,-24.61,-25.91,0,*46
1503993868.11,13800,19.19,74304.0,20.59,-24.41,-25.87,0,*42
1503993869.37,13801,19.19,74306.5,20.59,-24.87,-26.39,0,*4F
1503993870.59,13802,19.19,74306.3,20.61,-24.77,-26.23,0,*43
1503993871.86,13803,19.19,74306.3,20.63,-24.25,-25.71,0,*43
1503993873.09,13804,19.19,74304.8,20.63,-24.77,-26.13,0,*44
1503993874.35,13805,19.19,74302.5,20.67,-24.83,-26.17,0,*4E
1503993875.63,13806,19.19,74304.8,20.69,-25.29,-26.81,0,*4D
1503993876.86,13807,19.19,74300.5,20.69,-25.61,-27.13,0,*4A
1503993878.07,13808,19.19,74306.8,20.67,-25.87,-27.29,0,*4A
1503993879.29,13809,19.19,74304.0,20.69,-25.65,-27.13,0,*40
1503993880.5,13810,19.19,74306.5,20.67,-25.61,-27.03,0,*43
1503993881.7,13811,19.19,74306.8,20.67,-24.97,-26.49,0,*45
1503993882.93,13812,19.19,74304.8,20.67,-26.33,-27.93,0,*4C
1503993884.17,13813,19.19,74304.8,20.67,-27.19,-28.79,0,*4F
1503993885.4,13814,19.19,74300.8,20.67,-27.99,-29.67,0,*4E
1503993886.6,13815,19.19,74306.5,20.67,-27.51,-29.07,0,*4D
1503993887.82,13816,19.19,74302.5,20.67,-25.81,-27.13,0,*4A
1503993889.04,13817,19.19,74302.3,20.63,-24.57,-26.03,0,*45
1503993890.24,13818,19.19,74306.3,20.63,-25.49,-26.87,0,*48
1503993891.47,13819,19.19,74304.3,20.67,-24.05,-25.45,0,*49
1503993892.71,13820,19.19,74306.5,20.69,-24.47,-25.87,0,*45
1503993893.96,13821,19.19,74302.5,20.71,-25.97,-27.39,0,*46
1503993895.17,13822,19.19,74304.3,20.71,-26.39,-27.89,0,*49
1503993896.37,13823,19.19,74300.0,20.71,-25.13,-26.61,0,*44
1503993897.64,13824,19.19,74306.5,20.69,-24.35,-25.75,0,*49
1503993898.88,13825,19.19,74300.3,20.71,-24.31,-25.75,0,*45
1503993900.13,13826,19.19,74304.3,20.73,-25.91,-27.39,0,*45
1503993901.35,13827,19.19,74304.0,20.75,-25.91,-27.35,0,*4E
1503993902.59,13828,19.19,74302.0,20.73,-25.35,-26.71,0,*48
1503993903.85,13829,19.19,74300.8,20.73,-24.77,-26.17,0,*4E
1503993905.07,13830,19.19,74302.0,20.75,-25.39,-26.77,0,*4D
1503993906.32,13831,19.19,74304.0,20.73,-25.09,-26.55,0,*49
1503993907.51,13832,19.19,74304.3,20.75,-24.93,-26.23,0,*4F
1503993908.75,13833,19.19,74300.0,20.75,-24.35,-25.71,0,*46
1503993909.97,13834,19.19,74300.8,20.79,-25.09,-26.55,0,*46
1503993911.2,13835,19.19,74304.8,20.77,-25.13,-26.45,0,*43
1503993912.47,13836,19.19,74304.5,20.77,-25.29,-26.77,0,*48
1503993913.72,13837,19.19,74302.3,20.79,-25.81,-27.23,0,*45
1503993914.96,13838,19.19,74302.8,20.81,-25.19,-26.55,0,*4C
1503993916.2,13839,19.19,74304.8,20.79,-25.87,-27.35,0,*4A
1503993917.43,13840,19.19,74304.3,20.79,-25.39,-26.77,0,*46
1503993918.68,13841,19.19,74300.3,20.79,-25.75,-26.97,0,*41
1503993919.92,13842,19.19,74306.3,20.79,-24.61,-25.97,0,*45
1503993921.15,13843,19.19,74304.3,20.81,-24.61,-26.03,0,*4D
1503993922.36,13844,19.19,74304.3,20.81,-24.93,-26.39,0,*4E
1503993923.6,13845,19.19,74306.3,20.81,-24.51,-25.87,0,*47
1503993924.81,13846,19.19,74304.0,20.83,-24.93,-26.33,0,*44
1503993926.07,13847,19.19,74306.3,20.83,-25.55,-26.93,0,*44
1503993927.32,13848,19.19,74306.3,20.81,-24.71,-25.91,0,*4F
1503993928.6,13849,19.19,74302.5,20.85,-24.83,-26.13,0,*4E
1503993929.89,13850,19.19,74304.5,20.85,-24.71,-26.13,0,*4B
1503993931.11,13851,19.19,74304.0,20.89,-24.51,-25.91,0,*4D
1503993932.36,13852,19.19,74304.0,20.89,-24.15,-25.65,0,*45
1503993933.57,13853,19.19,74304.5,20.93,-24.77,-26.07,0,*4C
1503993934.79,13854,19.19,74302.0,20.91,-25.39,-26.93,0,*4F
1503993935.99,13855,19.19,74304.8,20.91,-25.91,-27.29,0,*4C
1503993937.19,13856,19.19,74304.5,20.91,-24.77,-26.23,0,*4D
1503993938.42,13857,19.19,74304.3,20.93,-24.41,-25.87,0,*46
1503993939.63,13858,19.19,74304.0,20.93,-24.47,-26.03,0,*40
1503993940.87,13859,19.19,74304.8,20.95,-24.31,-25.49,0,*4B
1503993942.1,13860,19.19,74304.0,20.95,-24.51,-25.87,0,*45
1503993943.36,13861,19.19,74300.0,20.95,-24.35,-25.71,0,*4F
1503993944.59,13862,19.19,74302.3,20.97,-25.49,-26.97,0,*4F
1503993945.82,13863,19.19,74304.0,20.97,-24.57,-26.13,0,*4C
1503993947.05,13864,19.19,74306.3,20.99,-24.31,-25.65,0,*47
1503993948.28,13865,19.19,74306.8,20.99,-25.65,-27.13,0,*45
1503993949.5,13866,19.19,74306.3,20.99,-25.13,-26.45,0,*45
1503993950.75,13867,19.19,74306.3,20.99,-24.67,-25.91,0,*4C
1503993952.0,13868,19.19,74306.8,21.01,-24.11,-25.55,0,*4A
1503993953.2,13869,19.19,74304.3,21.01,-23.89,-25.23,0,*4C
1503993954.43,13870,19.19,74304.8,21.05,-24.35,-25.71,0,*47
1503993955.67,13871,19.19,74306.3,21.03,-25.35,-26.55,0,*44
1503993956.92,13872,19.19,74302.3,21.03,-26.71,-28.31,0,*48
1503993958.16,13873,19.19,74306.3,21.03,-25.19,-26.55,0,*48
1503993959.44,13874,19.19,74304.5,21.03,-24.21,-25.55,0,*46
1503993960.66,13875,19.19,74302.8,21.05,-24.87,-26.23,0,*4F
1503993961.86,13876,19.19,74304.8,21.05,-24.35,-25.65,0,*44
1503993963.1,13877,19.19,74304.3,21.07,-23.85,-25.19,0,*40
1503993964.38,13878,19.19,74302.0,21.11,-24.87,-26.29,0,*4D
1503993965.67,13879,19.19,74306.0,21.11,-24.71,-26.13,0,*4C
1503993966.89,13880,19.19,74302.8,21.13,-24.67,-26.07,0,*4A
1503993968.16,13881,19.19,74300.8,21.11,-25.45,-27.23,0,*4F
1503993969.38,13882,19.19,74304.0,21.13,-25.49,-26.81,0,*4B
1503993970.6,13883,19.19,74306.3,21.13,-25.03,-26.39,0,*47
1503993971.79,13884,19.19,74306.0,21.13,-25.09,-26.65,0,*43
1503993973.04,13885,19.19,74300.0,21.13,-24.67,-26.17,0,*4E
1503993974.27,13886,19.19,74300.5,21.13,-24.35,-25.71,0,*49
1503993975.49,13887,19.19,74304.0,21.15,-25.09,-26.49,0,*48
1503993976.77,13888,19.19,74306.8,21.15,-24.71,-26.17,0,*42
1503993978.02,13889,19.19,74306.0,21.15,-25.55,-27.03,0,*40
1503993979.24,13890,19.19,74306.5,21.17,-25.35,-26.81,0,*47
1503993980.52,13891,19.19,74306.3,21.15,-24.83,-26.17,0,*47
1503993981.77,13892,19.19,74304.5,21.15,-24.71,-26.07,0,*48
1503993983.03,13893,19.19,74306.0,21.19,-24.41,-25.87,0,*4D
1503993984.24,13894,19.19,74304.5,21.17,-24.31,-25.61,0,*4B
1503993985.47,13895,19.19,74304.5,21.17,-24.47,-25.81,0,*45
1503993986.71,13896,19.19,74302.3,21.17,-25.97,-27.45,0,*40
1503993987.94,13897,19.19,74304.5,21.17,-26.45,-28.09,0,*4A
1503993989.17,13898,19.19,74302.8,21.17,-24.51,-25.97,0,*48
1503993990.45,13899,19.19,74302.5,21.19,-24.41,-25.75,0,*4A
1503993991.71,13900,19.19,74306.0,21.21,-24.25,-25.55,0,*40
1503993992.96,13901,19.19,74302.3,21.23,-24.67,-26.07,0,*41
1503993994.18,13902,19.19,74304.5,21.21,-25.87,-27.39,0,*43
1503993995.4,13903,19.19,74302.0,21.21,-26.87,-28.43,0,*43
1503993996.61,13904,19.19,74306.0,21.21,-24.93,-26.29,0,*41
1503993997.83,13905,19.19,74306.0,21.21,-24.77,-26.13,0,*43
1503993999.06,13906,19.19,74302.5,21.23,-25.09,-26.39,0,*42
1503994000.32,13907,19.19,74306.8,21.23,-24.25,-25.65,0,*46
1503994001.56,13908,19.19,74306.5,21.25,-24.15,-25.61,0,*48
1503994002.8,13909,19.19,74304.5,21.25,-24.67,-26.03,0,*4B
1503994004.04,13910,19.19,74306.0,21.25,-24.67,-25.65,0,*40
1503994005.25,13911,19.19,74304.8,21.25,-24.61,-25.87,0,*4B
1503994006.49,13912,19.19,74302.5,21.25,-26.45,-28.05,0,*4B
1503994007.7,13913,19.19,74302.8,21.25,-27.03,-28.37,0,*48
1503994008.94,13914,19.19,74300.8,21.25,-26.17,-27.67,0,*41
1503994010.22,13915,19.19,74302.0,21.23,-24.41,-25.81,0,*4D
1503994011.44,13916,19.19,74306.0,21.23,-25.19,-26.65,0,*4B
1503994012.71,13917,19.19,74302.0,21.27,-24.35,-25.75,0,*43
1503994013.98,13918,19.19,74304.5,21.27,-24.35,-25.75,0,*4C
1503994015.26,13919,19.19,74304.3,21.27,-23.99,-25.29,0,*45
1503994016.5,13920,19.19,74300.8,21.29,-23.65,-24.97,0,*46
1503994017.73,13921,19.19,74302.0,21.31,-25.09,-26.39,0,*44
1503994019.0,13922,19.19,74306.8,21.31,-23.79,-25.03,0,*4C
1503994020.24,13923,19.19,74304.5,21.35,-24.47,-25.87,0,*4F
1503994021.49,13924,19.19,74304.0,21.35,-25.03,-26.49,0,*48
1503994022.74,13925,19.19,74306.0,21.35,-24.05,-25.49,0,*4D
1503994023.97,13926,19.19,74306.5,21.37,-25.19,-26.77,0,*4E
1503994025.2,13927,19.19,74306.5,21.35,-24.97,-26.45,0,*4B
1503994026.44,13928,19.19,74304.5,21.37,-24.51,-25.97,0,*40
1503994027.68,13929,19.19,74304.3,21.37,-24.05,-25.45,0,*4F
1503994028.94,13930,19.19,74304.8,21.39,-24.93,-26.29,0,*4F
1503994030.21,13931,19.19,74302.3,21.39,-26.77,-28.15,0,*47
1503994031.47,13932,19.19,74304.0,21.39,-25.29,-26.61,0,*41
1503994032.7,13933,19.19,74302.5,21.39,-25.09,-26.45,0,*44
1503994033.98,13934,19.19,74304.8,21.39,-24.25,-25.61,0,*49
1503994035.24,13935,19.19,74304.0,21.39,-24.77,-26.13,0,*49
1503994036.48,13936,19.19,74306.3,21.41,-25.55,-27.03,0,*44
1503994037.72,13937,19.19,74302.3,21.41,-24.77,-26.17,0,*40
1503994038.94,13938,19.19,74304.3,21.41,-26.03,-27.67,0,*48
1503994040.2,13939,19.19,74304.5,21.41,-26.71,-28.21,0,*41
1503994041.46,13940,19.19,74304.0,21.39,-24.97,-26.55,0,*47
1503994042.69,13941,19.19,74306.5,21.39,-26.39,-27.93,0,*4B
1503994043.95,13942,19.19,74304.8,21.39,-27.83,-29.61,0,*4B
1503994045.22,13943,19.19,74304.0,21.39,-26.81,-28.15,0,*4B
1503994046.51,13944,19.19,74304.3,21.35,-26.97,-28.47,0,*40
1503994047.72,13945,19.19,74304.3,21.37,-27.77,-29.57,0,*4C
1503994048.93,13946,19.19,74302.0,21.29,-29.61,-31.29,0,*49
1503994050.2,13947,19.19,74304.0,21.31,-28.09,-29.57,0,*4E
1503994051.43,13948,19.19,74304.0,21.29,-25.91,-27.39,0,*42
1503994052.69,13949,19.19,74306.3,21.27,-25.49,-26.97,0,*4D
1503994053.98,13950,19.19,74306.3,21.27,-26.33,-27.83,0,*4F
1503994055.21,13951,19.19,74302.0,21.29,-25.39,-26.77,0,*43
1503994056.45,13952,19.19,74300.3,21.29,-25.97,-27.55,0,*45
1503994057.68,13953,19.25,74306.8,21.29,-25.81,-27.29,0,*48
1503994058.93,13954,19.19,74306.0,21.29,-24.71,-26.07,0,*4C
1503994060.23,13955,19.19,74300.5,21.31,-24.71,-26.17,0,*45
1503994061.49,13956,19.25,74304.3,21.31,-25.03,-26.39,0,*4E
1503994062.75,13957,19.25,74306.5,21.31,-25.49,-26.93,0,*41
1503994064.05,13958,19.25,74304.0,21.31,-26.33,-27.83,0,*40
1503994065.31,13959,19.19,74306.3,21.31,-25.49,-26.93,0,*4F
1503994066.54,13960,19.25,74304.5,21.35,-25.13,-26.49,0,*49
1503994067.75,13961,19.19,74300.5,21.37,-25.19,-26.65,0,*4E
1503994069.01,13962,19.19,74302.8,21.31,-25.35,-26.81,0,*4F
1503994070.22,13963,19.25,74304.0,21.37,-26.45,-27.89,0,*45
1503994071.43,13964,19.19,74302.8,21.37,-25.13,-26.65,0,*41
1503994072.66,13965,19.19,74304.8,21.35,-24.97,-26.45,0,*4D
1503994073.94,13966,19.19,74300.8,21.35,-25.81,-27.35,0,*4E
1503994075.18,13967,19.25,74304.8,21.39,-24.61,-26.07,0,*4C
1503994076.45,13968,19.25,74306.8,21.37,-24.71,-26.13,0,*49
1503994077.67,13969,19.19,74304.8,21.37,-24.61,-26.03,0,*48
1503994078.92,13970,19.25,74304.0,21.39,-24.31,-25.65,0,*48
1503994080.21,13971,19.19,74300.0,21.39,-23.99,-25.75,0,*4D
1503994081.45,13972,19.25,74302.3,21.41,-23.95,-25.23,0,*4E
1503994082.66,13973,19.19,74302.3,21.41,-23.43,-24.93,0,*4E
1503994083.89,13974,19.25,74302.5,21.45,-23.69,-25.19,0,*46
1503994085.13,13975,19.19,74302.0,21.45,-24.15,-25.49,0,*4E
1503994086.43,13976,19.25,74302.8,21.47,-24.11,-25.75,0,*44
1503994087.69,13977,19.25,74300.5,21.47,-25.81,-27.29,0,*46
1503994088.93,13978,19.25,74304.0,21.49,-26.45,-27.99,0,*47
1503994090.18,13979,19.19,74302.0,21.49,-25.29,-26.81,0,*47
1503994091.42,13980,19.19,74300.0,21.49,-24.31,-25.81,0,*4A
1503994092.66,13981,19.25,74300.8,21.49,-24.61,-25.97,0,*49
1503994093.89,13982,19.25,74302.5,21.49,-24.77,-26.29,0,*4B
1503994095.13,13983,19.25,74302.5,21.49,-26.39,-28.09,0,*4E
1503994096.37,13984,19.25,74306.3,21.49,-26.81,-28.31,0,*41